Year,Month,Day,Hour,Minute,Value (Times are PST for temperature in C)
2011,07,03,00,00,16.60
2011,07,03,00,01,16.60
2011,07,03,00,02,16.60
2011,07,03,00,03,16.60
2011,07,03,00,04,16.60
2011,07,03,00,05,16.60
2011,07,03,00,06,16.60
2011,07,03,00,07,16.50
2011,07,03,00,08,16.50
2011,07,03,00,09,16.50
2011,07,03,00,10,16.40
2011,07,03,00,11,16.40
2011,07,03,00,12,16.40
2011,07,03,00,13,16.40
2011,07,03,00,14,16.40
2011,07,03,00,15,16.40
2011,07,03,00,16,16.30
2011,07,03,00,17,16.30
2011,07,03,00,18,16.30
2011,07,03,00,19,16.30
2011,07,03,00,20,16.30
2011,07,03,00,21,16.30
2011,07,03,00,22,16.20
2011,07,03,00,23,16.20
2011,07,03,00,24,16.20
2011,07,03,00,25,16.20
2011,07,03,00,26,16.20
2011,07,03,00,27,16.20
2011,07,03,00,28,16.10
2011,07,03,00,29,16.10
2011,07,03,00,30,16.10
2011,07,03,00,31,16.00
2011,07,03,00,32,16.00
2011,07,03,00,33,15.90
2011,07,03,00,34,15.90
2011,07,03,00,35,15.80
2011,07,03,00,36,15.80
2011,07,03,00,37,15.90
2011,07,03,00,38,15.90
2011,07,03,00,39,15.90
2011,07,03,00,40,15.90
2011,07,03,00,41,15.90
2011,07,03,00,42,15.90
2011,07,03,00,43,16.00
2011,07,03,00,44,16.00
2011,07,03,00,45,15.90
2011,07,03,00,46,15.90
2011,07,03,00,47,15.90
2011,07,03,00,48,15.90
2011,07,03,00,49,15.90
2011,07,03,00,50,15.90
2011,07,03,00,51,15.90
2011,07,03,00,52,15.90
2011,07,03,00,53,15.90
2011,07,03,00,54,15.90
2011,07,03,00,55,15.90
2011,07,03,00,56,15.90
2011,07,03,00,57,15.90
2011,07,03,00,58,15.90
2011,07,03,00,59,15.90
2011,07,03,01,00,15.90
2011,07,03,01,01,15.90
2011,07,03,01,02,15.80
2011,07,03,01,03,15.80
2011,07,03,01,04,15.80
2011,07,03,01,05,15.80
2011,07,03,01,06,15.80
2011,07,03,01,07,15.70
2011,07,03,01,08,15.70
2011,07,03,01,09,15.70
2011,07,03,01,10,15.70
2011,07,03,01,11,15.70
2011,07,03,01,12,15.70
2011,07,03,01,13,15.70
2011,07,03,01,14,15.70
2011,07,03,01,15,15.70
2011,07,03,01,16,15.70
2011,07,03,01,17,15.60
2011,07,03,01,18,15.60
2011,07,03,01,19,15.60
2011,07,03,01,20,15.60
2011,07,03,01,21,15.60
2011,07,03,01,22,15.60
2011,07,03,01,23,15.60
2011,07,03,01,24,15.60
2011,07,03,01,25,15.60
2011,07,03,01,26,15.60
2011,07,03,01,27,15.60
2011,07,03,01,28,15.60
2011,07,03,01,29,15.60
2011,07,03,01,30,15.50
2011,07,03,01,31,15.60
2011,07,03,01,32,15.60
2011,07,03,01,33,15.50
2011,07,03,01,34,15.50
2011,07,03,01,35,15.50
2011,07,03,01,36,15.50
2011,07,03,01,37,15.50
2011,07,03,01,38,15.50
2011,07,03,01,39,15.40
2011,07,03,01,40,15.40
2011,07,03,01,41,15.40
2011,07,03,01,42,15.40
2011,07,03,01,43,15.40
2011,07,03,01,44,15.40
2011,07,03,01,45,15.40
2011,07,03,01,46,15.40
2011,07,03,01,47,15.50
2011,07,03,01,48,15.40
2011,07,03,01,49,15.40
2011,07,03,01,50,15.40
2011,07,03,01,51,15.40
2011,07,03,01,52,15.40
2011,07,03,01,53,15.40
2011,07,03,01,54,15.40
2011,07,03,01,55,15.40
2011,07,03,01,56,15.30
2011,07,03,01,57,15.30
2011,07,03,01,58,15.30
2011,07,03,01,59,15.30
2011,07,03,02,00,15.30
2011,07,03,02,01,15.30
2011,07,03,02,02,15.30
2011,07,03,02,03,15.20
2011,07,03,02,04,15.20
2011,07,03,02,05,15.20
2011,07,03,02,06,15.10
2011,07,03,02,07,15.00
2011,07,03,02,08,15.00
2011,07,03,02,09,15.00
2011,07,03,02,10,15.00
2011,07,03,02,11,15.00
2011,07,03,02,12,15.00
2011,07,03,02,13,15.00
2011,07,03,02,14,15.00
2011,07,03,02,15,14.90
2011,07,03,02,16,14.90
2011,07,03,02,17,14.90
2011,07,03,02,18,14.80
2011,07,03,02,19,14.80
2011,07,03,02,20,14.80
2011,07,03,02,21,14.70
2011,07,03,02,22,14.70
2011,07,03,02,23,14.70
2011,07,03,02,24,14.70
2011,07,03,02,25,14.60
2011,07,03,02,26,14.60
2011,07,03,02,27,14.50
2011,07,03,02,28,14.40
2011,07,03,02,29,14.40
2011,07,03,02,30,14.40
2011,07,03,02,31,14.40
2011,07,03,02,32,14.30
2011,07,03,02,33,14.30
2011,07,03,02,34,14.30
2011,07,03,02,35,14.30
2011,07,03,02,36,14.30
2011,07,03,02,37,14.30
2011,07,03,02,38,14.30
2011,07,03,02,39,14.30
2011,07,03,02,40,14.30
2011,07,03,02,41,14.30
2011,07,03,02,42,14.30
2011,07,03,02,43,14.40
2011,07,03,02,44,14.40
2011,07,03,02,45,14.40
2011,07,03,02,46,14.50
2011,07,03,02,47,14.50
2011,07,03,02,48,14.50
2011,07,03,02,49,14.60
2011,07,03,02,50,14.60
2011,07,03,02,51,14.60
2011,07,03,02,52,14.60
2011,07,03,02,53,14.60
2011,07,03,02,54,14.60
2011,07,03,02,55,14.60
2011,07,03,02,56,14.60
2011,07,03,02,57,14.60
2011,07,03,02,58,14.60
2011,07,03,02,59,14.60
2011,07,03,03,00,14.60
2011,07,03,03,01,14.60
2011,07,03,03,02,14.60
2011,07,03,03,03,14.60
2011,07,03,03,04,14.50
2011,07,03,03,05,14.50
2011,07,03,03,06,14.50
2011,07,03,03,07,14.40
2011,07,03,03,08,14.40
2011,07,03,03,09,14.40
2011,07,03,03,10,14.40
2011,07,03,03,11,14.40
2011,07,03,03,12,14.40
2011,07,03,03,13,14.40
2011,07,03,03,14,14.40
2011,07,03,03,15,14.40
2011,07,03,03,16,14.40
2011,07,03,03,17,14.40
2011,07,03,03,18,14.40
2011,07,03,03,19,14.40
2011,07,03,03,20,14.40
2011,07,03,03,21,14.40
2011,07,03,03,22,14.40
2011,07,03,03,23,14.40
2011,07,03,03,24,14.40
2011,07,03,03,25,14.40
2011,07,03,03,26,14.40
2011,07,03,03,27,14.40
2011,07,03,03,28,14.40
2011,07,03,03,29,14.40
2011,07,03,03,30,14.50
2011,07,03,03,31,14.50
2011,07,03,03,32,14.50
2011,07,03,03,33,14.60
2011,07,03,03,34,14.60
2011,07,03,03,35,14.70
2011,07,03,03,36,14.70
2011,07,03,03,37,14.70
2011,07,03,03,38,14.70
2011,07,03,03,39,14.70
2011,07,03,03,40,14.80
2011,07,03,03,41,14.80
2011,07,03,03,42,14.80
2011,07,03,03,43,14.80
2011,07,03,03,44,14.80
2011,07,03,03,45,14.80
2011,07,03,03,46,14.80
2011,07,03,03,47,14.80
2011,07,03,03,48,14.80
2011,07,03,03,49,14.70
2011,07,03,03,50,14.70
2011,07,03,03,51,14.70
2011,07,03,03,52,14.70
2011,07,03,03,53,14.70
2011,07,03,03,54,14.70
2011,07,03,03,55,14.60
2011,07,03,03,56,14.60
2011,07,03,03,57,14.60
2011,07,03,03,58,14.60
2011,07,03,03,59,14.60
2011,07,03,04,00,14.50
2011,07,03,04,01,14.50
2011,07,03,04,02,14.50
2011,07,03,04,03,14.40
2011,07,03,04,04,14.40
2011,07,03,04,05,14.40
2011,07,03,04,06,14.40
2011,07,03,04,07,14.40
2011,07,03,04,08,14.40
2011,07,03,04,09,14.40
2011,07,03,04,10,14.40
2011,07,03,04,11,14.40
2011,07,03,04,12,14.30
2011,07,03,04,13,14.30
2011,07,03,04,14,14.30
2011,07,03,04,15,14.30
2011,07,03,04,16,14.30
2011,07,03,04,17,14.20
2011,07,03,04,18,14.20
2011,07,03,04,19,14.20
2011,07,03,04,20,14.10
2011,07,03,04,21,14.10
2011,07,03,04,22,14.10
2011,07,03,04,23,14.00
2011,07,03,04,24,14.00
2011,07,03,04,25,14.00
2011,07,03,04,26,13.90
2011,07,03,04,27,13.90
2011,07,03,04,28,13.90
2011,07,03,04,29,13.80
2011,07,03,04,30,13.80
2011,07,03,04,31,13.80
2011,07,03,04,32,13.70
2011,07,03,04,33,13.70
2011,07,03,04,34,13.70
2011,07,03,04,35,13.60
2011,07,03,04,36,13.60
2011,07,03,04,37,13.60
2011,07,03,04,38,13.50
2011,07,03,04,39,13.50
2011,07,03,04,40,13.40
2011,07,03,04,41,13.40
2011,07,03,04,42,13.40
2011,07,03,04,43,13.30
2011,07,03,04,44,13.30
2011,07,03,04,45,13.30
2011,07,03,04,46,13.30
2011,07,03,04,47,13.20
2011,07,03,04,48,13.20
2011,07,03,04,49,13.20
2011,07,03,04,50,13.20
2011,07,03,04,51,13.20
2011,07,03,04,52,13.10
2011,07,03,04,53,13.10
2011,07,03,04,54,13.10
2011,07,03,04,55,13.10
2011,07,03,04,56,13.10
2011,07,03,04,57,13.10
2011,07,03,04,58,13.10
2011,07,03,04,59,13.10
2011,07,03,05,00,13.10
2011,07,03,05,01,13.10
2011,07,03,05,02,13.10
2011,07,03,05,03,13.10
2011,07,03,05,04,13.10
2011,07,03,05,05,13.10
2011,07,03,05,06,13.10
2011,07,03,05,07,13.10
2011,07,03,05,08,13.10
2011,07,03,05,09,13.10
2011,07,03,05,10,13.10
2011,07,03,05,11,13.00
2011,07,03,05,12,13.00
2011,07,03,05,13,13.00
2011,07,03,05,14,13.10
2011,07,03,05,15,13.10
2011,07,03,05,16,13.10
2011,07,03,05,17,13.10
2011,07,03,05,18,13.10
2011,07,03,05,19,13.10
2011,07,03,05,20,13.10
2011,07,03,05,21,13.10
2011,07,03,05,22,13.20
2011,07,03,05,23,13.20
2011,07,03,05,24,13.20
2011,07,03,05,25,13.20
2011,07,03,05,26,13.30
2011,07,03,05,27,13.30
2011,07,03,05,28,13.30
2011,07,03,05,29,13.30
2011,07,03,05,30,13.30
2011,07,03,05,31,13.30
2011,07,03,05,32,13.30
2011,07,03,05,33,13.30
2011,07,03,05,34,13.30
2011,07,03,05,35,13.30
2011,07,03,05,36,13.30
2011,07,03,05,37,13.30
2011,07,03,05,38,13.30
2011,07,03,05,39,13.30
2011,07,03,05,40,13.30
2011,07,03,05,41,13.30
2011,07,03,05,42,13.30
2011,07,03,05,43,13.30
2011,07,03,05,44,13.30
2011,07,03,05,45,13.30
2011,07,03,05,46,13.30
2011,07,03,05,47,13.30
2011,07,03,05,48,13.30
2011,07,03,05,49,13.30
2011,07,03,05,50,13.30
2011,07,03,05,51,13.30
2011,07,03,05,52,13.30
2011,07,03,05,53,13.30
2011,07,03,05,54,13.30
2011,07,03,05,55,13.30
2011,07,03,05,56,13.30
2011,07,03,05,57,13.40
2011,07,03,05,58,13.40
2011,07,03,05,59,13.40
2011,07,03,06,00,13.40
2011,07,03,06,01,13.40
2011,07,03,06,02,13.40
2011,07,03,06,03,13.50
2011,07,03,06,04,13.50
2011,07,03,06,05,13.50
2011,07,03,06,06,13.60
2011,07,03,06,07,13.60
2011,07,03,06,08,13.60
2011,07,03,06,09,13.60
2011,07,03,06,10,13.60
2011,07,03,06,11,13.70
2011,07,03,06,12,13.70
2011,07,03,06,13,13.70
2011,07,03,06,14,13.70
2011,07,03,06,15,13.70
2011,07,03,06,16,13.70
2011,07,03,06,17,13.80
2011,07,03,06,18,13.80
2011,07,03,06,19,13.80
2011,07,03,06,20,13.80
2011,07,03,06,21,13.80
2011,07,03,06,22,13.80
2011,07,03,06,23,13.80
2011,07,03,06,24,13.80
2011,07,03,06,25,13.80
2011,07,03,06,26,13.80
2011,07,03,06,27,13.80
2011,07,03,06,28,13.80
2011,07,03,06,29,13.80
2011,07,03,06,30,13.80
2011,07,03,06,31,13.80
2011,07,03,06,32,13.80
2011,07,03,06,33,13.80
2011,07,03,06,34,13.80
2011,07,03,06,35,13.80
2011,07,03,06,36,13.80
2011,07,03,06,37,13.80
2011,07,03,06,38,13.80
2011,07,03,06,39,13.90
2011,07,03,06,40,13.90
2011,07,03,06,41,13.90
2011,07,03,06,42,13.90
2011,07,03,06,43,14.00
2011,07,03,06,44,14.00
2011,07,03,06,45,14.10
2011,07,03,06,46,14.10
2011,07,03,06,47,14.10
2011,07,03,06,48,14.10
2011,07,03,06,49,14.10
2011,07,03,06,50,14.10
2011,07,03,06,51,14.10
2011,07,03,06,52,14.10
2011,07,03,06,53,14.10
2011,07,03,06,54,14.20
2011,07,03,06,55,14.20
2011,07,03,06,56,14.20
2011,07,03,06,57,14.20
2011,07,03,06,58,14.20
2011,07,03,06,59,14.20
2011,07,03,07,00,14.20
2011,07,03,07,01,14.20
2011,07,03,07,02,14.20
2011,07,03,07,03,14.20
2011,07,03,07,04,14.10
2011,07,03,07,05,14.10
2011,07,03,07,06,14.10
2011,07,03,07,07,14.00
2011,07,03,07,08,14.00
2011,07,03,07,09,14.00
2011,07,03,07,10,13.90
2011,07,03,07,11,13.90
2011,07,03,07,12,13.90
2011,07,03,07,13,13.90
2011,07,03,07,14,13.90
2011,07,03,07,15,13.80
2011,07,03,07,16,13.80
2011,07,03,07,17,13.80
2011,07,03,07,18,13.80
2011,07,03,07,19,13.80
2011,07,03,07,20,13.80
2011,07,03,07,21,13.80
2011,07,03,07,22,13.80
2011,07,03,07,23,13.80
2011,07,03,07,24,13.80
2011,07,03,07,25,13.80
2011,07,03,07,26,13.90
2011,07,03,07,27,14.00
2011,07,03,07,28,14.10
2011,07,03,07,29,14.20
2011,07,03,07,30,14.40
2011,07,03,07,31,14.50
2011,07,03,07,32,14.70
2011,07,03,07,33,14.90
2011,07,03,07,34,15.00
2011,07,03,07,35,15.10
2011,07,03,07,36,15.30
2011,07,03,07,37,15.50
2011,07,03,07,38,15.70
2011,07,03,07,39,15.90
2011,07,03,07,40,16.10
2011,07,03,07,41,16.30
2011,07,03,07,42,16.50
2011,07,03,07,43,16.70
2011,07,03,07,44,16.80
2011,07,03,07,45,17.00
2011,07,03,07,46,17.10
2011,07,03,07,47,17.20
2011,07,03,07,48,17.40
2011,07,03,07,49,17.50
2011,07,03,07,50,17.60
2011,07,03,07,51,17.60
2011,07,03,07,52,17.70
2011,07,03,07,53,17.70
2011,07,03,07,54,17.80
2011,07,03,07,55,17.80
2011,07,03,07,56,17.90
2011,07,03,07,57,17.90
2011,07,03,07,58,17.90
2011,07,03,07,59,17.90
2011,07,03,08,00,17.90
2011,07,03,08,01,17.90
2011,07,03,08,02,17.90
2011,07,03,08,03,17.90
2011,07,03,08,04,17.80
2011,07,03,08,05,17.90
2011,07,03,08,06,17.80
2011,07,03,08,07,17.80
2011,07,03,08,08,17.70
2011,07,03,08,09,17.70
2011,07,03,08,10,17.60
2011,07,03,08,11,17.60
2011,07,03,08,12,17.60
2011,07,03,08,13,17.60
2011,07,03,08,14,17.60
2011,07,03,08,15,17.60
2011,07,03,08,16,17.70
2011,07,03,08,17,17.70
2011,07,03,08,18,17.80
2011,07,03,08,19,17.80
2011,07,03,08,20,17.90
2011,07,03,08,21,17.90
2011,07,03,08,22,18.00
2011,07,03,08,23,18.00
2011,07,03,08,24,18.10
2011,07,03,08,25,18.10
2011,07,03,08,26,18.20
2011,07,03,08,27,18.20
2011,07,03,08,28,18.30
2011,07,03,08,29,18.30
2011,07,03,08,30,18.30
2011,07,03,08,31,18.20
2011,07,03,08,32,18.20
2011,07,03,08,33,18.20
2011,07,03,08,34,18.20
2011,07,03,08,35,18.10
2011,07,03,08,36,18.00
2011,07,03,08,37,17.90
2011,07,03,08,38,17.90
2011,07,03,08,39,17.80
2011,07,03,08,40,17.80
2011,07,03,08,41,17.70
2011,07,03,08,42,17.60
2011,07,03,08,43,17.60
2011,07,03,08,44,17.50
2011,07,03,08,45,17.40
2011,07,03,08,46,17.40
2011,07,03,08,47,17.30
2011,07,03,08,48,17.20
2011,07,03,08,49,17.20
2011,07,03,08,50,17.10
2011,07,03,08,51,17.00
2011,07,03,08,52,17.00
2011,07,03,08,53,16.90
2011,07,03,08,54,16.90
2011,07,03,08,55,16.80
2011,07,03,08,56,16.80
2011,07,03,08,57,16.80
2011,07,03,08,58,16.80
2011,07,03,08,59,16.90
2011,07,03,09,00,16.90
2011,07,03,09,01,16.90
2011,07,03,09,02,17.00
2011,07,03,09,03,17.10
2011,07,03,09,04,17.10
2011,07,03,09,05,17.20
2011,07,03,09,06,17.30
2011,07,03,09,07,17.30
2011,07,03,09,08,17.30
2011,07,03,09,09,17.30
2011,07,03,09,10,17.40
2011,07,03,09,11,17.50
2011,07,03,09,12,17.70
2011,07,03,09,13,17.80
2011,07,03,09,14,17.80
2011,07,03,09,15,17.90
2011,07,03,09,16,18.00
2011,07,03,09,17,18.10
2011,07,03,09,18,18.20
2011,07,03,09,19,18.20
2011,07,03,09,20,18.20
2011,07,03,09,21,18.30
2011,07,03,09,22,18.30
2011,07,03,09,23,18.30
2011,07,03,09,24,18.30
2011,07,03,09,25,18.30
2011,07,03,09,26,18.20
2011,07,03,09,27,18.10
2011,07,03,09,28,18.10
2011,07,03,09,29,18.10
2011,07,03,09,30,18.00
2011,07,03,09,31,18.00
2011,07,03,09,32,17.90
2011,07,03,09,33,17.90
2011,07,03,09,34,17.80
2011,07,03,09,35,17.60
2011,07,03,09,36,17.40
2011,07,03,09,37,17.30
2011,07,03,09,38,17.10
2011,07,03,09,39,17.10
2011,07,03,09,40,17.00
2011,07,03,09,41,17.00
2011,07,03,09,42,17.00
2011,07,03,09,43,17.10
2011,07,03,09,44,17.20
2011,07,03,09,45,17.30
2011,07,03,09,46,17.40
2011,07,03,09,47,17.40
2011,07,03,09,48,17.40
2011,07,03,09,49,17.40
2011,07,03,09,50,17.40
2011,07,03,09,51,17.40
2011,07,03,09,52,17.40
2011,07,03,09,53,17.50
2011,07,03,09,54,17.50
2011,07,03,09,55,17.60
2011,07,03,09,56,17.60
2011,07,03,09,57,17.60
2011,07,03,09,58,17.50
2011,07,03,09,59,17.40
2011,07,03,10,00,17.30
2011,07,03,10,01,17.10
2011,07,03,10,02,16.90
2011,07,03,10,03,16.70
2011,07,03,10,04,16.50
2011,07,03,10,05,16.40
2011,07,03,10,06,16.30
2011,07,03,10,07,16.20
2011,07,03,10,08,16.10
2011,07,03,10,09,16.10
2011,07,03,10,10,16.10
2011,07,03,10,11,16.10
2011,07,03,10,12,16.10
2011,07,03,10,13,16.10
2011,07,03,10,14,16.10
2011,07,03,10,15,16.10
2011,07,03,10,16,16.00
2011,07,03,10,17,15.90
2011,07,03,10,18,15.90
2011,07,03,10,19,15.90
2011,07,03,10,20,15.80
2011,07,03,10,21,15.80
2011,07,03,10,22,15.70
2011,07,03,10,23,15.70
2011,07,03,10,24,15.70
2011,07,03,10,25,15.70
2011,07,03,10,26,15.70
2011,07,03,10,27,15.70
2011,07,03,10,28,15.70
2011,07,03,10,29,15.80
2011,07,03,10,30,15.80
2011,07,03,10,31,15.80
2011,07,03,10,32,15.80
2011,07,03,10,33,15.80
2011,07,03,10,34,15.90
2011,07,03,10,35,15.90
2011,07,03,10,36,15.90
2011,07,03,10,37,15.90
2011,07,03,10,38,15.80
2011,07,03,10,39,15.80
2011,07,03,10,40,15.80
2011,07,03,10,41,15.80
2011,07,03,10,42,15.90
2011,07,03,10,43,15.90
2011,07,03,10,44,15.90
2011,07,03,10,45,15.90
2011,07,03,10,46,15.90
2011,07,03,10,47,16.00
2011,07,03,10,48,16.00
2011,07,03,10,49,16.10
2011,07,03,10,50,16.10
2011,07,03,10,51,16.10
2011,07,03,10,52,16.20
2011,07,03,10,53,16.20
2011,07,03,10,54,16.30
2011,07,03,10,55,16.30
2011,07,03,10,56,16.30
2011,07,03,10,57,16.30
2011,07,03,10,58,16.30
2011,07,03,10,59,16.30
2011,07,03,11,00,16.30
2011,07,03,11,01,16.40
2011,07,03,11,02,16.40
2011,07,03,11,03,16.40
2011,07,03,11,04,16.40
2011,07,03,11,05,16.40
2011,07,03,11,06,16.30
2011,07,03,11,07,16.30
2011,07,03,11,08,16.20
2011,07,03,11,09,16.20
2011,07,03,11,10,16.20
2011,07,03,11,11,16.20
2011,07,03,11,12,16.00
2011,07,03,11,13,16.00
2011,07,03,11,14,15.90
2011,07,03,11,15,15.90
2011,07,03,11,16,15.90
2011,07,03,11,17,15.80
2011,07,03,11,18,15.90
2011,07,03,11,19,15.90
2011,07,03,11,20,16.00
2011,07,03,11,21,16.10
2011,07,03,11,22,16.20
2011,07,03,11,23,16.30
2011,07,03,11,24,16.40
2011,07,03,11,25,16.40
2011,07,03,11,26,16.40
2011,07,03,11,27,16.40
2011,07,03,11,28,16.40
2011,07,03,11,29,16.30
2011,07,03,11,30,16.30
2011,07,03,11,31,16.30
2011,07,03,11,32,16.30
2011,07,03,11,33,16.30
2011,07,03,11,34,16.40
2011,07,03,11,35,16.40
2011,07,03,11,36,16.40
2011,07,03,11,37,16.40
2011,07,03,11,38,16.40
2011,07,03,11,39,16.40
2011,07,03,11,40,16.40
2011,07,03,11,41,16.30
2011,07,03,11,42,16.30
2011,07,03,11,43,16.30
2011,07,03,11,44,16.30
2011,07,03,11,45,16.30
2011,07,03,11,46,16.30
2011,07,03,11,47,16.30
2011,07,03,11,48,16.30
2011,07,03,11,49,16.30
2011,07,03,11,50,16.20
2011,07,03,11,51,16.20
2011,07,03,11,52,16.10
2011,07,03,11,53,16.10
2011,07,03,11,54,16.10
2011,07,03,11,55,16.20
2011,07,03,11,56,16.20
2011,07,03,11,57,16.30
2011,07,03,11,58,16.40
2011,07,03,11,59,16.50
2011,07,03,12,00,16.60
2011,07,03,12,01,16.60
2011,07,03,12,02,16.60
2011,07,03,12,03,16.60
2011,07,03,12,04,16.60
2011,07,03,12,05,16.70
2011,07,03,12,06,16.70
2011,07,03,12,07,16.80
2011,07,03,12,08,16.80
2011,07,03,12,09,16.80
2011,07,03,12,10,16.90
2011,07,03,12,11,17.00
2011,07,03,12,12,17.00
2011,07,03,12,13,17.10
2011,07,03,12,14,17.10
2011,07,03,12,15,17.10
2011,07,03,12,16,17.10
2011,07,03,12,17,17.00
2011,07,03,12,18,17.00
2011,07,03,12,19,16.90
2011,07,03,12,20,16.80
2011,07,03,12,21,16.70
2011,07,03,12,22,16.60
2011,07,03,12,23,16.60
2011,07,03,12,24,16.60
2011,07,03,12,25,16.70
2011,07,03,12,26,16.70
2011,07,03,12,27,16.70
2011,07,03,12,28,16.70
2011,07,03,12,29,16.80
2011,07,03,12,30,16.80
2011,07,03,12,31,16.90
2011,07,03,12,32,16.90
2011,07,03,12,33,17.00
2011,07,03,12,34,17.10
2011,07,03,12,35,17.20
2011,07,03,12,36,17.30
2011,07,03,12,37,17.40
2011,07,03,12,38,17.60
2011,07,03,12,39,17.60
2011,07,03,12,40,17.70
2011,07,03,12,41,17.70
2011,07,03,12,42,17.90
2011,07,03,12,43,18.00
2011,07,03,12,44,18.10
2011,07,03,12,45,18.20
2011,07,03,12,46,18.10
2011,07,03,12,47,17.90
2011,07,03,12,48,17.60
2011,07,03,12,49,17.50
2011,07,03,12,50,17.40
2011,07,03,12,51,17.40
2011,07,03,12,52,17.30
2011,07,03,12,53,17.30
2011,07,03,12,54,17.30
2011,07,03,12,55,17.30
2011,07,03,12,56,17.30
2011,07,03,12,57,17.20
2011,07,03,12,58,17.10
2011,07,03,12,59,17.10
2011,07,03,13,00,17.00
2011,07,03,13,01,17.00
2011,07,03,13,02,17.10
2011,07,03,13,03,17.10
2011,07,03,13,04,17.20
2011,07,03,13,05,17.20
2011,07,03,13,06,17.20
2011,07,03,13,07,17.20
2011,07,03,13,08,17.30
2011,07,03,13,09,17.40
2011,07,03,13,10,17.50
2011,07,03,13,11,17.60
2011,07,03,13,12,17.60
2011,07,03,13,13,17.60
2011,07,03,13,14,17.60
2011,07,03,13,15,17.60
2011,07,03,13,16,17.60
2011,07,03,13,17,17.60
2011,07,03,13,18,17.70
2011,07,03,13,19,17.60
2011,07,03,13,20,17.50
2011,07,03,13,21,17.50
2011,07,03,13,22,17.40
2011,07,03,13,23,17.40
2011,07,03,13,24,17.50
2011,07,03,13,25,17.60
2011,07,03,13,26,17.70
2011,07,03,13,27,17.80
2011,07,03,13,28,17.90
2011,07,03,13,29,18.00
2011,07,03,13,30,18.00
2011,07,03,13,31,18.00
2011,07,03,13,32,18.00
2011,07,03,13,33,18.00
2011,07,03,13,34,18.10
2011,07,03,13,35,18.10
2011,07,03,13,36,18.10
2011,07,03,13,37,18.10
2011,07,03,13,38,18.10
2011,07,03,13,39,18.10
2011,07,03,13,40,18.00
2011,07,03,13,41,18.00
2011,07,03,13,42,17.90
2011,07,03,13,43,17.80
2011,07,03,13,44,17.80
2011,07,03,13,45,17.80
2011,07,03,13,46,17.90
2011,07,03,13,47,17.90
2011,07,03,13,48,18.00
2011,07,03,13,49,18.00
2011,07,03,13,50,17.90
2011,07,03,13,51,17.80
2011,07,03,13,52,17.70
2011,07,03,13,53,17.60
2011,07,03,13,54,17.60
2011,07,03,13,55,17.50
2011,07,03,13,56,17.50
2011,07,03,13,57,17.50
2011,07,03,13,58,17.60
2011,07,03,13,59,17.60
2011,07,03,14,00,17.60
2011,07,03,14,01,17.60
2011,07,03,14,02,17.60
2011,07,03,14,03,17.60
2011,07,03,14,04,17.70
2011,07,03,14,05,17.80
2011,07,03,14,06,17.90
2011,07,03,14,07,17.90
2011,07,03,14,08,17.90
2011,07,03,14,09,17.90
2011,07,03,14,10,18.00
2011,07,03,14,11,18.00
2011,07,03,14,12,18.00
2011,07,03,14,13,18.00
2011,07,03,14,14,18.00
2011,07,03,14,15,18.00
2011,07,03,14,16,18.00
2011,07,03,14,17,17.90
2011,07,03,14,18,17.90
2011,07,03,14,19,17.80
2011,07,03,14,20,17.80
2011,07,03,14,21,17.70
2011,07,03,14,22,17.70
2011,07,03,14,23,17.80
2011,07,03,14,24,17.90
2011,07,03,14,25,17.90
2011,07,03,14,26,18.00
2011,07,03,14,27,18.10
2011,07,03,14,28,18.20
2011,07,03,14,29,18.30
2011,07,03,14,30,18.40
2011,07,03,14,31,18.40
2011,07,03,14,32,18.40
2011,07,03,14,33,18.40
2011,07,03,14,34,18.30
2011,07,03,14,35,18.20
2011,07,03,14,36,18.20
2011,07,03,14,37,18.20
2011,07,03,14,38,18.20
2011,07,03,14,39,18.10
2011,07,03,14,40,18.10
2011,07,03,14,41,18.10
2011,07,03,14,42,18.10
2011,07,03,14,43,18.10
2011,07,03,14,44,18.10
2011,07,03,14,45,18.20
2011,07,03,14,46,18.20
2011,07,03,14,47,18.20
2011,07,03,14,48,18.20
2011,07,03,14,49,18.20
2011,07,03,14,50,18.20
2011,07,03,14,51,18.30
2011,07,03,14,52,18.40
2011,07,03,14,53,18.50
2011,07,03,14,54,18.60
2011,07,03,14,55,18.60
2011,07,03,14,56,18.60
2011,07,03,14,57,18.60
2011,07,03,14,58,18.50
2011,07,03,14,59,18.40
2011,07,03,15,00,18.30
2011,07,03,15,01,18.30
2011,07,03,15,02,18.30
2011,07,03,15,03,18.40
2011,07,03,15,04,18.50
2011,07,03,15,05,18.60
2011,07,03,15,06,18.70
2011,07,03,15,07,18.70
2011,07,03,15,08,18.60
2011,07,03,15,09,18.60
2011,07,03,15,10,18.50
2011,07,03,15,11,18.50
2011,07,03,15,12,18.50
2011,07,03,15,13,18.50
2011,07,03,15,14,18.50
2011,07,03,15,15,18.40
2011,07,03,15,16,18.40
2011,07,03,15,17,18.40
2011,07,03,15,18,18.40
2011,07,03,15,19,18.50
2011,07,03,15,20,18.60
2011,07,03,15,21,18.70
2011,07,03,15,22,18.70
2011,07,03,15,23,18.80
2011,07,03,15,24,18.80
2011,07,03,15,25,18.70
2011,07,03,15,26,18.70
2011,07,03,15,27,18.80
2011,07,03,15,28,18.80
2011,07,03,15,29,18.90
2011,07,03,15,30,19.00
2011,07,03,15,31,19.10
2011,07,03,15,32,19.20
2011,07,03,15,33,19.20
2011,07,03,15,34,19.10
2011,07,03,15,35,19.10
2011,07,03,15,36,19.20
2011,07,03,15,37,19.20
2011,07,03,15,38,19.20
2011,07,03,15,39,19.20
2011,07,03,15,40,19.20
2011,07,03,15,41,19.30
2011,07,03,15,42,19.40
2011,07,03,15,43,19.50
2011,07,03,15,44,19.50
2011,07,03,15,45,19.50
2011,07,03,15,46,19.30
2011,07,03,15,47,19.30
2011,07,03,15,48,19.30
2011,07,03,15,49,19.20
2011,07,03,15,50,19.20
2011,07,03,15,51,19.20
2011,07,03,15,52,19.10
2011,07,03,15,53,19.00
2011,07,03,15,54,18.90
2011,07,03,15,55,18.90
2011,07,03,15,56,18.90
2011,07,03,15,57,19.00
2011,07,03,15,58,19.00
2011,07,03,15,59,19.00
2011,07,03,16,00,18.90
2011,07,03,16,01,18.90
2011,07,03,16,02,18.80
2011,07,03,16,03,18.80
2011,07,03,16,04,18.80
2011,07,03,16,05,18.70
2011,07,03,16,06,18.70
2011,07,03,16,07,18.70
2011,07,03,16,08,18.80
2011,07,03,16,09,18.80
2011,07,03,16,10,18.80
2011,07,03,16,11,18.80
2011,07,03,16,12,18.80
2011,07,03,16,13,18.80
2011,07,03,16,14,18.80
2011,07,03,16,15,18.80
2011,07,03,16,16,18.80
2011,07,03,16,17,18.80
2011,07,03,16,18,18.80
2011,07,03,16,19,18.80
2011,07,03,16,20,18.80
2011,07,03,16,21,18.70
2011,07,03,16,22,18.70
2011,07,03,16,23,18.80
2011,07,03,16,24,18.90
2011,07,03,16,25,18.90
2011,07,03,16,26,18.90
2011,07,03,16,27,18.90
2011,07,03,16,28,19.00
2011,07,03,16,29,19.00
2011,07,03,16,30,19.10
2011,07,03,16,31,19.10
2011,07,03,16,32,19.00
2011,07,03,16,33,19.00
2011,07,03,16,34,18.90
2011,07,03,16,35,18.90
2011,07,03,16,36,18.80
2011,07,03,16,37,18.70
2011,07,03,16,38,18.60
2011,07,03,16,39,18.60
2011,07,03,16,40,18.60
2011,07,03,16,41,18.50
2011,07,03,16,42,18.50
2011,07,03,16,43,18.60
2011,07,03,16,44,18.60
2011,07,03,16,45,18.60
2011,07,03,16,46,18.60
2011,07,03,16,47,18.70
2011,07,03,16,48,18.70
2011,07,03,16,49,18.80
2011,07,03,16,50,18.90
2011,07,03,16,51,18.90
2011,07,03,16,52,18.90
2011,07,03,16,53,18.90
2011,07,03,16,54,18.90
2011,07,03,16,55,19.00
2011,07,03,16,56,19.00
2011,07,03,16,57,18.90
2011,07,03,16,58,18.90
2011,07,03,16,59,18.90
2011,07,03,17,00,18.90
2011,07,03,17,01,18.80
2011,07,03,17,02,18.80
2011,07,03,17,03,18.70
2011,07,03,17,04,18.70
2011,07,03,17,05,18.70
2011,07,03,17,06,18.70
2011,07,03,17,07,18.80
2011,07,03,17,08,18.80
2011,07,03,17,09,18.80
2011,07,03,17,10,18.80
2011,07,03,17,11,18.80
2011,07,03,17,12,18.80
2011,07,03,17,13,18.90
2011,07,03,17,14,18.90
2011,07,03,17,15,18.90
2011,07,03,17,16,18.90
2011,07,03,17,17,19.00
2011,07,03,17,18,19.00
2011,07,03,17,19,19.00